Weather History for Miles City, MT

Change the Weather History Date:

Thursday, August 9, 2012

  Actual Average Record
Temperature  
Mean Temperature 83 °F 75 °F  
Max Temperature 98 °F 89 °F 104 °F (1940)
Min Temperature 68 °F 60 °F 46 °F (1985)
Degree Days  
Heating Degree Days 0 0  
Month to date heating degree days 3 0  
Since 1 June heating degree days 24 101  
Since 1 July heating degree days 3 12  
Cooling Degree Days 18 10  
Month to date cooling degree days 108 94  
Year to date cooling degree days 869 509  
Since 1 June cooling degree days 824 489  
Growing Degree Days 34 (Base 50)    
Moisture  
Dew Point 47 °F    
Average Humidity 32    
Maximum Humidity 47    
Minimum Humidity 16    
Precipitation  
Precipitation 0.00 in 0.04 in 0.25 in (1944)
Month to date precipitation 0.30 0.33  
Year to date precipitation 4.08 9.18  
Sea Level Pressure  
Sea Level Pressure 29.97 in    
Wind  
Wind Speed 10 mph (SE)    
Max Wind Speed 21 mph    
Max Gust Speed 25 mph    
Visibility 10 miles    
Events      
T = Trace of Precipitation, MM = Missing Value Source: NWS Daily Summary

Daily Weather History Graph

Daily Weather History Graph

Search for Another Location

Airport:

Trip Planner

Search our weather history database for the weather conditions in past years. The results will help you decide how hot, cold, wet, or windy it might be!

Date:

Astronomy

Aug. 09, 2012 Rise Set
Actual Time 5:55 AM MDT 8:21 PM MDT
Civil Twilight 5:21 AM MDT 8:55 PM MDT
Nautical Twilight 4:39 AM MDT 9:37 PM MDT
Astronomical Twilight 3:50 AM MDT 10:25 PM MDT
Moon 11:43 PM MDT (8/9) 2:11 PM MDT (8/9)
Length of Visible Light 15h 33m
Length of Day
14h 26m
Waning Gibbous, 50% of the Moon is Illuminated
Aug 9
Waning Gibbous
Aug 9
Last Quarter
Aug 17
New
Aug 24
First Quarter
Aug 31
Full

Hourly Weather History & Observations

Time (MDT) Temp. Dew Point Humidity Pressure Visibility Wind Dir Wind Speed Gust Speed Precip Events Conditions
12:53 AM 77.0 °F 46.0 °F 33% 30.01 in 10.0 mi SSE 5.8 mph - N/A   Clear
1:53 AM 75.0 °F 46.0 °F 36% 30.02 in 10.0 mi ESE 3.5 mph - N/A   Clear
2:53 AM 75.9 °F 48.0 °F 37% 29.99 in 10.0 mi East 11.5 mph - N/A   Clear
3:53 AM 70.0 °F 48.0 °F 46% 30.02 in 10.0 mi Calm Calm - N/A   Clear
4:53 AM 73.0 °F 48.9 °F 42% 30.01 in 10.0 mi SSE 4.6 mph - N/A   Clear
5:53 AM 72.0 °F 48.9 °F 44% 30.00 in 10.0 mi East 10.4 mph - N/A   Clear
6:53 AM 75.0 °F 48.9 °F 40% 29.99 in 10.0 mi East 9.2 mph - N/A   Clear
7:53 AM 75.0 °F 50.0 °F 41% 30.03 in 10.0 mi SSE 11.5 mph - N/A   Scattered Clouds
8:53 AM 75.9 °F 50.0 °F 40% 30.02 in 10.0 mi SE 15.0 mph 23.0 mph N/A   Clear
9:53 AM 79.0 °F 50.0 °F 36% 30.01 in 10.0 mi SE 12.7 mph - N/A   Clear
10:53 AM 82.9 °F 51.1 °F 33% 30.01 in 10.0 mi East 6.9 mph - N/A   Clear
11:53 AM 89.1 °F 50.0 °F 26% 29.98 in 10.0 mi SE 4.6 mph - N/A   Clear
12:53 PM 93.9 °F 46.0 °F 19% 29.96 in 10.0 mi SSE 9.2 mph - N/A   Clear
1:53 PM 96.1 °F 46.9 °F 19% 29.95 in 10.0 mi South 15.0 mph 23.0 mph N/A   Clear
2:53 PM 97.0 °F 45.0 °F 17% 29.94 in 10.0 mi SSE 11.5 mph 24.2 mph N/A   Clear
3:53 PM 96.1 °F 45.0 °F 17% 29.93 in 10.0 mi SE 11.5 mph - N/A   Clear
4:53 PM 97.0 °F 44.1 °F 16% 29.91 in 10.0 mi SE 10.4 mph 19.6 mph N/A   Clear
5:53 PM 96.1 °F 43.0 °F 16% 29.90 in 10.0 mi SE 11.5 mph - N/A   Clear
6:53 PM 93.9 °F 43.0 °F 17% 29.89 in 10.0 mi SE 8.1 mph - N/A   Clear
7:53 PM 91.0 °F 44.1 °F 20% 29.90 in 10.0 mi SE 8.1 mph - N/A   Clear
8:53 PM 88.0 °F 43.0 °F 21% 29.92 in 10.0 mi ESE 13.8 mph 19.6 mph N/A   Clear
9:53 PM 84.9 °F 44.1 °F 24% 29.93 in 10.0 mi SE 15.0 mph 21.9 mph N/A   Clear
10:53 PM 81.0 °F 45.0 °F 28% 29.93 in 10.0 mi SSE 10.4 mph - N/A   Clear
11:53 PM 79.0 °F 46.0 °F 31% 29.93 in 10.0 mi SSE 10.4 mph - N/A   Clear